Weather History for Beverly, MA

Change the Weather History Date:

Friday, May 30, 2014

  Actual Average Record
Temperature  
Mean Temperature 54 °F -  
Max Temperature 66 °F 66 °F 89 °F (2013)
Min Temperature 44 °F 47 °F 39 °F (2000)
Degree Days  
Heating Degree Days 11    
Growing Degree Days 4 (Base 50)    
Moisture  
Dew Point 46 °F    
Average Humidity 74    
Maximum Humidity 92    
Minimum Humidity 59    
Precipitation  
Precipitation 0.02 in - - ()
Sea Level Pressure  
Sea Level Pressure 30.04 in    
Wind  
Wind Speed 5 mph (SE)    
Max Wind Speed 15 mph    
Max Gust Speed -    
Visibility 10 miles    
Events Rain    
Averages and records for this station are not official NWS values.
T = Trace of Precipitation, MM = Missing Value Source: NWS Daily Summary

Daily Weather History Graph

Daily Weather History Graph

Search for Another Location

Airport:

Trip Planner

Search our weather history database for the weather conditions in past years. The results will help you decide how hot, cold, wet, or windy it might be!

Date:

Astronomy

May. 30, 2014 Rise Set
Actual Time 5:09 AM EDT 8:13 PM EDT
Civil Twilight 4:35 AM EDT 8:47 PM EDT
Nautical Twilight 3:52 AM EDT 9:30 PM EDT
Astronomical Twilight 3:01 AM EDT 10:22 PM EDT
Moon 6:52 AM EDT (5/30) 9:46 PM EDT (5/30)
Length of Visible Light 16h 11m
Length of Day
15h 03m
Waxing Crescent, 4% of the Moon is Illuminated
May 30
Waxing Crescent
Jun 5
First Quarter
Jun 13
Full
Jun 19
Last Quarter
Jun 27
New

Hourly Weather History & Observations

Time (EDT) Temp. Windchill Dew Point Humidity Pressure Visibility Wind Dir Wind Speed Gust Speed Precip Events Conditions
12:53 AM 46.9 °F - 44.1 °F 90% 30.12 in 10.0 mi South 3.5 mph - N/A   Clear
1:53 AM 46.9 °F - 43.0 °F 86% 30.11 in 10.0 mi Calm Calm - N/A   Clear
2:53 AM 46.9 °F - 43.0 °F 86% 30.09 in 10.0 mi South 4.6 mph - N/A   Clear
3:53 AM 46.0 °F 44.8 °F 43.0 °F 89% 30.08 in 10.0 mi South 3.5 mph - N/A   Clear
4:53 AM 46.9 °F - 42.1 °F 83% 30.07 in 10.0 mi Calm Calm - N/A   Clear
5:53 AM 44.1 °F - 41.0 °F 89% 30.07 in 10.0 mi Calm Calm - N/A   Clear
6:53 AM 48.9 °F - 44.1 °F 83% 30.07 in 10.0 mi SSW 3.5 mph - N/A   Clear
7:53 AM 54.0 °F - 46.0 °F 75% 30.06 in 10.0 mi WSW 4.6 mph - N/A   Clear
8:53 AM 59.0 °F - 46.0 °F 62% 30.06 in 10.0 mi Calm Calm - N/A   Clear
9:53 AM 62.1 °F - 48.0 °F 60% 30.05 in 10.0 mi Calm Calm - N/A   Clear
10:53 AM 64.0 °F - 50.0 °F 60% 30.04 in 10.0 mi SSE 8.1 mph - N/A   Clear
11:53 AM 64.0 °F - 50.0 °F 60% 30.03 in 10.0 mi SSE 9.2 mph - N/A   Scattered Clouds
12:53 PM 64.0 °F - 51.1 °F 63% 30.02 in 10.0 mi SE 12.7 mph - N/A   Scattered Clouds
1:53 PM 62.6 °F - 48.2 °F 59% 30.02 in 10.0 mi SE 15.0 mph - N/A   Clear
2:53 PM 59.0 °F - 45.0 °F 60% 30.01 in 10.0 mi SE 11.5 mph - N/A   Mostly Cloudy
3:53 PM 60.1 °F - 48.0 °F 64% 30.00 in 10.0 mi SE 12.7 mph - N/A   Overcast
4:53 PM 57.0 °F - 45.0 °F 64% 29.99 in 10.0 mi SE 8.1 mph - N/A   Overcast
5:53 PM 57.2 °F - 46.4 °F 67% 30.01 in 10.0 mi South 4.6 mph - N/A   Overcast
6:53 PM 57.0 °F - 45.0 °F 64% 29.99 in 10.0 mi East 8.1 mph - N/A   Overcast
7:53 PM 57.0 °F - 44.1 °F 62% 30.01 in 10.0 mi ENE 9.2 mph - N/A   Overcast
8:53 PM 53.1 °F - 48.9 °F 86% 30.03 in 10.0 mi North 4.6 mph - 0.02 in Rain Light Rain
9:53 PM 52.0 °F - 48.0 °F 86% 30.03 in 10.0 mi NE 4.6 mph - 0.00 in   Overcast
10:53 PM 51.1 °F - 48.0 °F 89% 30.04 in 10.0 mi North 4.6 mph - N/A   Overcast
11:53 PM 51.1 °F - 48.9 °F 92% 30.04 in 9.0 mi North 6.9 mph - N/A   Overcast